Regional Weather Roundup
Issued by NWS

Home | Current Version | Previous Version | Text Only | Print | Product List | Glossary Off
Versions: 1 2 3 4 5 6 7 8 9 10 11 12 13 14 15 16 17 18 19 20 21 22 23 24 25 26 27 28 29 30 31 32 33 34 35 36 37 38 39 40 41 42 43 44 45 46 47 48 49 50

000
ASUS43 KDMX 222301
RWRIA

WEATHER ROUNDUP FOR IOWA
NATIONAL WEATHER SERVICE DES MOINES IA
600 PM CDT SUN OCT 22 2017

NOTE: "FAIR" INDICATES FEW OR NO CLOUDS BELOW 12,000 FEET WITH NO
SIGNIFICANT WEATHER AND/OR OBSTRUCTIONS TO VISIBILITY.

* - THESE STATIONS ARE NOT NWS STATIONS...THUS NOT UNDER NWS
QUALITY CONTROL.  THEY ALSO DO NOT REPORT WEATHER SUCH
AS PRECIPITATION OR FOG.

IAZ001>003-012>014-020>022-031>034-043>046-230000-
   NORTHWEST IOWA

CITY           SKY/WX    TMP DP  RH WIND       PRES   REMARKS
DENISON *      CLEAR     63  36  36 S7G13     30.01F
LE MARS *      CLEAR     66  28  24 S8G15     29.94S
ORANGE CITY *  CLEAR     64  34  32 S9        29.94S
SHELDON *      CLEAR     63  28  27 S9        29.92S
SIOUX CITY     CLEAR     65  30  27 SW8       29.95F
SPENCER        CLEAR     62  30  29 S10       29.96S
STORM LAKE *   CLEAR     61  32  33 S9        29.98S
$$

IAZ055>058-069>071-079>083-090>094-230000-
   SOUTHWEST IOWA

CITY           SKY/WX    TMP DP  RH WIND       PRES   REMARKS
ATLANTIC *     CLEAR     61  36  39 SW6       30.03S
AUDUBON *      CLEAR     63  27  25 SW5       30.04S
CLARINDA *     CLEAR     64  32  29 SW5       30.07S
COUNCIL BLFS * CLEAR     64  32  29 S7        30.01F
CRESTON *      CLEAR     63  32  31 CALM      30.06S
HARLAN  *      CLEAR     63  32  31 S6        30.05S
LAMONI         PTCLDY    61  38  42 SE3       30.07S
RED OAK *      CLEAR     64  34  32 S5        30.04S
SHENANDOAH *   CLEAR     66  30  26 S6        30.05S
$$

IAZ047>049-059>061-072>074-084-230000-
   CENTRAL IOWA

CITY           SKY/WX    TMP DP  RH WIND       PRES   REMARKS
AMES           CLEAR     63  33  32 W3        30.02F
ANKENY *       CLOUDY    64  34  32 CALM      30.04S
BOONE *        CLEAR     63  30  29 CALM      30.02S
CHARITON *     PTCLDY    59  45  58 S6        30.06S
DES MOINES     CLOUDY    66  29  24 CALM      30.03F
GRINNELL*      CLOUDY    56  47  70 S3        30.07R
KNOXVILLE *    PTCLDY    59  45  58 S7        30.05S
MARSHALLTOWN   MOCLDY    59  41  51 SE7       30.03S
NEWTON *       PTCLDY    59  43  55 S8        30.05S
PELLA *        MOCLDY    58  45  60 S3        30.07S
PERRY *          N/A     64  26  23 SW3       30.03S
$$

IAZ004>006-015-016-023>025-035-036-230000-
   NORTH CENTRAL IOWA

CITY           SKY/WX    TMP DP  RH WIND       PRES   REMARKS
ALGONA *       CLEAR     61  34  36 S7        29.99S
CLARION *      CLEAR     61  34  36 SW5       30.01S
ESTHERVILLE    CLEAR     59  32  36 S8        29.96S
FORT DODGE *   CLEAR     60  35  39 S6        30.01
MASON CITY     CLEAR     58  32  37 SW6       30.01F
FOREST CITY *    N/A     61  32  33 SW3       29.99F
WEBSTER CITY * CLEAR     63  30  29 SW5       30.00S
IOWA FALLS *     N/A     62  34  35 CALM      30.03S
$$

IAZ007>011-017>019-026>030-037>042-050>054-066-230000-
   NORTHEAST IOWA

CITY           SKY/WX    TMP DP  RH WIND       PRES   REMARKS
CEDAR RAPIDS   CLOUDY    55  46  71 CALM      30.05F
CHARLES CITY * MOCLDY    61  30  31 SW5       30.01S
CLINTON *      CLOUDY    52  50  93 CALM      30.06F
DECORAH *      CLOUDY    54  45  71 S6        30.01S
DUBUQUE        CLOUDY    52  47  83 CALM      30.06S
MONTICELLO *   CLOUDY    54  48  82 CALM      30.05S
OELWEIN *      MOCLDY    54  48  82 S7        30.05R
WATERLOO       CLOUDY    55  44  66 SE8       30.03R
$$

IAZ064-065-067-068-078-230000-
   EAST CENTRAL IOWA

CITY           SKY/WX    TMP DP  RH WIND       PRES   REMARKS
DAVENPORT      CLOUDY    52  48  86 CALM      30.08S
IOWA CITY      CLOUDY    55  48  77 CALM      30.07F
MUSCATINE *    CLOUDY    55  48  76 CALM      30.07S
QUAD CITIES    CLOUDY    54  47  77 CALM      30.06S
$$

IAZ062-063-075>077-085>089-095>099-230000-
   SOUTHEAST IOWA

CITY           SKY/WX    TMP DP  RH WIND       PRES   REMARKS
BURLINGTON     CLOUDY    54  49  83 CALM      30.07S
FAIRFIELD *    CLOUDY    55  45  67 CALM      30.06F
FORT MADISON * CLOUDY    54  52  94 CALM      30.07S
KEOKUK *       CLOUDY    55  50  82 CALM      30.07S
OTTUMWA        CLOUDY    56  49  77 S3        30.06F
WASHINGTON *   CLOUDY    55  48  76 W5        30.07F
$$

ABBREVIATIONS USED IN REMARKS
   TC - TEMPERATURES IN CELSIUS
  WCI - WIND CHILL INDEX
   HX - HEAT INDEX
  VSB - VISIBILITY
$$





USA.gov is the U.S. government's official web portal to all federal, state and local government web resources and services.